Regional Weather Roundup
Issued by NWS

Home | Current Version | Previous Version | Text Only | Print | Product List | Glossary Off
Versions: 1 2 3 4 5 6 7 8 9 10 11 12 13 14 15 16 17 18 19 20 21 22 23 24 25 26 27 28 29 30 31 32 33 34 35 36 37 38 39 40 41 42 43 44 45 46 47 48 49 50

513
ASUS43 KBIS 182010
RWRND

NORTH DAKOTA REGIONAL WEATHER ROUNDUP
NATIONAL WEATHER SERVICE BISMARCK ND
200 PM CST SUN FEB 18 2018

NOTE: "FAIR" INDICATES FEW OR NO CLOUDS BELOW 12,000 FEET WITH NO
SIGNIFICANT WEATHER AND/OR OBSTRUCTIONS TO VISIBILITY.


NDZ001>003-009>011-017-182100-
NORTHWEST NORTH DAKOTA

CITY           SKY/WX    TMP DP  RH WIND       PRES   REMARKS
WILLISTON      CLOUDY    10   1  67 N14       29.93F WCI  -6
MINOT          SUNNY     11   2  67 N17       29.90R WCI  -6
MINOT AFB      MOSUNNY   10   1  66 N15       29.89S WCI  -6
$$

NDZ018>021-031>035-040>046-182100-
SOUTHWEST NORTH DAKOTA

CITY           SKY/WX    TMP DP  RH WIND       PRES   REMARKS
BISMARCK       CLOUDY    13   7  77 N15       29.83R WCI  -3
DICKINSON      CLOUDY     8   1  73 N10       29.81R WCI  -6
GARRISON         N/A     10   2  69 N12G21    29.86R WCI  -5
HETTINGER ARPT LGT SNOW   9   3  77 N16G24    29.77S WCI  -8
$$

NDZ004>008-012>016-024-026-027-054-182100-
NORTHEAST NORTH DAKOTA

CITY           SKY/WX    TMP DP  RH WIND       PRES   REMARKS
GRAND FORKS    LGT SNOW  14  10  84 N23       29.84S VSB 1   WCI  -5
GRND FRKS AFB  CLOUDY    12   7  79 NE23      29.84S BLWGSNOWWCI  -7
DEVILS LAKE    FLURRIES  10   4  76 NE18      29.85S WCI  -8
$$

NDZ022-023-025-028>030-036>039-047>053-182100-
SOUTHEAST NORTH DAKOTA

CITY           SKY/WX    TMP DP  RH WIND       PRES   REMARKS
FARGO          CLOUDY    19  15  84 N24G33    29.72R FOG     WCI   2
JAMESTOWN      MIX PCPN  14  10  84 N24       29.74R WCI  -5
$$





USA.gov is the U.S. government's official web portal to all federal, state and local government web resources and services.